Mayport NS, FL

8:35 AM EDT on March 25, 2017 (GMT -0400)
Mayport Naval Station / Adm. David L. McDonald Field

Weather History for KNRB - October, 2012

Change the Weather History Date:

Monday, October 8, 2012

  Actual Average Record
Temperature  
Mean Temperature 78 °F -  
Max Temperature 84 °F 79 °F 86 °F (1997)
Min Temperature 70 °F 68 °F 50 °F (2016)
Cooling Degree Days 13    
Growing Degree Days 28 (Base 50)    
Moisture  
Dew Point 70 °F    
Average Humidity 78    
Maximum Humidity 85    
Minimum Humidity 65    
Precipitation  
Precipitation 0.11 in - - ()
Sea Level Pressure  
Sea Level Pressure 30.00 in    
Wind  
Wind Speed 3 mph (East)    
Max Wind Speed 13 mph    
Max Gust Speed 18 mph    
Visibility 10 miles    
Events Rain , Thunderstorm    
Averages and records for this station are not official NWS values.
T = Trace of Precipitation, MM = Missing Value Source: NWS Daily Summary

Daily Weather History Graph

Daily Weather History Graph

Search for Another Location

Airport or City:

Trip Planner

Search our weather history database for the weather conditions in past years. The results will help you decide how hot, cold, wet, or windy it might be!

Date:

Astronomy

Oct. 08, 2012 Rise Set
Actual Time 7:23 AM EDT 7:01 PM EDT
Civil Twilight 6:59 AM EDT 7:26 PM EDT
Nautical Twilight 6:31 AM EDT 7:53 PM EDT
Astronomical Twilight 6:03 AM EDT 8:21 PM EDT
Moon 12:29 AM EDT (10/8) 2:25 PM EDT (10/8)
Length of Visible Light 12h 26m
Length of Day
11h 38m
Waning Gibbous, 46% of the Moon is Illuminated
Oct 8
Waning Gibbous
Oct 15
New
Oct 21
First Quarter
Oct 29
Full
Nov 6
Last Quarter

Hourly Weather History & Observations

Time (EDT) Temp. Heat Index Dew Point Humidity Pressure Visibility Wind Dir Wind Speed Gust Speed Precip Events Conditions
12:52 AM 75.9 °F - 70.0 °F 82% 29.99 in 10.0 mi Calm Calm - N/A   Clear
1:52 AM 77.0 °F - 70.0 °F 79% 29.99 in 10.0 mi Calm Calm - N/A   Clear
2:52 AM 75.9 °F - 70.0 °F 82% 29.97 in 10.0 mi Calm Calm - N/A   Partly Cloudy
3:52 AM 75.0 °F - 70.0 °F 84% 29.96 in 10.0 mi Calm Calm - N/A   Clear
4:52 AM 73.9 °F - 69.1 °F 85% 29.96 in 10.0 mi Calm Calm - N/A   Clear
5:52 AM 73.9 °F - 69.1 °F 85% 29.98 in 10.0 mi Calm Calm - N/A   Clear
6:52 AM 73.9 °F - 69.1 °F 85% 29.99 in 10.0 mi Calm Calm - N/A   Clear
7:52 AM 73.9 °F - 69.1 °F 85% 30.01 in 10.0 mi Calm Calm - 0.01 in   Clear
8:52 AM 78.1 °F - 73.0 °F 84% 30.02 in 10.0 mi Calm Calm - N/A   Clear
9:52 AM 80.1 °F 83.8 °F 72.0 °F 76% 30.03 in 10.0 mi Calm Calm - N/A   Partly Cloudy
10:52 AM 82.0 °F 85.9 °F 70.0 °F 67% 30.04 in 10.0 mi Calm Calm - N/A   Clear
11:52 AM 82.0 °F 85.9 °F 70.0 °F 67% 30.03 in 10.0 mi SSW 3.5 mph - N/A   Mostly Cloudy
12:09 PM 82.4 °F 87.2 °F 71.6 °F 70% 30.03 in 10.0 mi SSE 6.9 mph - N/A   Mostly Cloudy
12:30 PM 82.4 °F 87.2 °F 71.6 °F 70% 30.02 in 10.0 mi South 6.9 mph - N/A Thunderstorm Thunderstorm
12:52 PM 82.9 °F 87.5 °F 71.1 °F 67% 30.01 in 10.0 mi SE 6.9 mph - N/A   Clear
1:52 PM 84.0 °F 89.0 °F 71.1 °F 65% 29.97 in 10.0 mi SSE 8.1 mph - N/A   Scattered Clouds
2:12 PM 82.4 °F 87.2 °F 71.6 °F 70% 29.97 in 10.0 mi SE 8.1 mph - N/A   Mostly Cloudy
2:52 PM 84.0 °F 89.6 °F 72.0 °F 67% 29.96 in 10.0 mi SSE 9.2 mph - N/A   Mostly Cloudy
3:52 PM 82.0 °F 86.3 °F 71.1 °F 69% 29.95 in 10.0 mi SSE 8.1 mph - N/A   Scattered Clouds
4:52 PM 80.1 °F 82.7 °F 68.0 °F 67% 29.95 in 10.0 mi South 6.9 mph - N/A Thunderstorm Thunderstorm
5:29 PM 78.8 °F - 68.0 °F 69% 29.95 in 10.0 mi Calm Calm - 0.00 in Rain , Thunderstorm Light Thunderstorms and Rain
5:52 PM 75.9 °F - 69.1 °F 79% 29.95 in 3.0 mi Variable 4.6 mph - 0.06 in Rain , Thunderstorm Heavy Thunderstorms and Rain
6:30 PM 75.2 °F - 69.8 °F 83% 29.99 in 10.0 mi WSW 11.5 mph 18.4 mph 0.00 in Rain , Thunderstorm Light Thunderstorms and Rain
6:52 PM 72.0 °F - 66.0 °F 81% 29.98 in 6.0 mi Variable 3.5 mph - 0.03 in Rain , Thunderstorm Light Thunderstorms and Rain
7:24 PM 75.2 °F - 69.8 °F 83% 29.99 in 10.0 mi NE 6.9 mph - 0.01 in Thunderstorm Thunderstorm
7:41 PM 75.2 °F - 68.0 °F 78% 29.99 in 10.0 mi NE 10.4 mph - 0.01 in   Overcast
7:52 PM 75.0 °F - 69.1 °F 82% 30.00 in 10.0 mi ENE 8.1 mph - 0.01 in   Overcast
8:00 PM 75.2 °F - 69.8 °F 83% 30.00 in 10.0 mi NE 6.9 mph - N/A Thunderstorm Thunderstorm
8:12 PM 75.2 °F - 69.8 °F 83% 30.00 in 10.0 mi NNE 6.9 mph - N/A Thunderstorm Thunderstorm
8:22 PM 75.2 °F - 69.8 °F 83% 30.00 in 10.0 mi NE 10.4 mph - N/A   Mostly Cloudy
8:39 PM 75.2 °F - 69.8 °F 83% 30.00 in 10.0 mi NE 9.2 mph - N/A   Scattered Clouds
8:52 PM 75.9 °F - 69.1 °F 79% 30.00 in 10.0 mi NE 9.2 mph - N/A   Clear
9:49 PM 75.2 °F - 69.8 °F 83% 30.02 in 10.0 mi NNE 10.4 mph - N/A   Mostly Cloudy
9:52 PM 75.9 °F - 69.1 °F 79% 30.02 in 10.0 mi NNE 11.5 mph - N/A   Mostly Cloudy
10:52 PM 73.0 °F - 66.9 °F 81% 30.05 in 9.0 mi North 11.5 mph 18.4 mph N/A   Overcast
11:52 PM 70.0 °F - 64.9 °F 84% 30.05 in 7.0 mi North 12.7 mph - 0.00 in   Overcast